Regional Weather Roundup
Issued by NWS Sterling, VA

Home | Current Version | Previous Version | Text Only | Print | Product List | Glossary Off
Versions: 1 2 3 4 5 6 7 8 9 10 11 12 13 14 15 16 17 18 19 20 21 22 23 24 25 26 27 28 29 30 31 32 33 34 35 36 37 38 39 40 41 42 43 44 45 46 47 48 49 50

000
ASUS41 KLWX 261410
RWRLWX

REGIONAL WEATHER ROUNDUP
NATIONAL WEATHER SERVICE BALTIMORE MD/WASHINGTON DC
1000 AM EDT SUN MAR 26 2017

Note: "FAIR" indicates few or no clouds below 12,000 feet
with no significant weather and/or obstructions to visibility.
 TC=TEMPERATURE CELSIUS

 * =Non NWS site. Station does not report precipitation (e.g. rain,
    snow, etc.), thunder, or fog.

DCZ001-MDZ009-015-VAZ040>042-051-053>054-261500-
WASHINGTON METRO

CITY           SKY/WX    TMP DP  RH WIND       PRES   REMARKS
WASHINGTON NAT CLOUDY    48  44  86 E13       30.34R
DULLES         CLOUDY    47  42  83 E7        30.33R
ANDREWS AFB    CLOUDY    45  42  91 E12       30.32R
FT BELVOIR     CLOUDY    47  43  86 VRB3      30.34R
QUANTICO       CLOUDY    49  47  93 E9        30.34R
COLLEGE PARK*  CLOUDY    45  41  87 E8        30.35R
LEESBURG*      CLOUDY    46  45  93 E10       30.34R
MANASSAS*      CLOUDY    48  44  86 NE7       30.33R

$$

MDZ006>007-011-014-261500-
BALTIMORE METRO

CITY           SKY/WX    TMP DP  RH WIND       PRES   REMARKS
BWI AIRPORT    CLOUDY    47  42  83 E15       30.35R
MD SCIENCE CTR   N/A     47  39  74 MISG      30.37R
MARTIN STATE   CLOUDY    46  43  87 NE8       30.38S
ANNAPOLIS      CLOUDY    47  43  86 E10       30.36R
FORT MEADE*    CLOUDY    45  41  87 E10       30.38R

$$

MDZ012-015-019>023-261500-
MARYLAND EASTERN SHORE

CITY           SKY/WX    TMP DP  RH WIND       PRES   REMARKS
OCEAN CITY     CLOUDY    46  43  89 NE12      30.34S FOG
SALISBURY      CLOUDY    47  47 100 E12       30.34R FOG
BAY BRIDGE AP* CLOUDY    46  43  87 E13G18    30.36R FOG
CAMBRIDGE*     CLOUDY    46  45  93 E9        30.34S FOG
EASTON*        CLOUDY    46  43  87 E9G17     30.39R FOG

$$

MDZ017>025-261500-
SOUTHERN MARYLAND

CITY           SKY/WX    TMP DP  RH WIND       PRES   REMARKS
PATUXENT RIVER CLOUDY    47  47 100 E9        30.33R FOG
ST INIGOES     CLOUDY    48  46  93 NE10      30.32R FOG
LEONARDTOWN*   CLOUDY    46  43  87 E9        30.35R

$$

MDZ003>005-261500-
NORTH CENTRAL MARYLAND

CITY           SKY/WX    TMP DP  RH WIND       PRES   REMARKS
FREDERICK*     CLOUDY    48  37  66 E3        30.37R
HAGERSTOWN APT CLOUDY    47  41  80 E8        30.31S
WESTMINSTER*   CLOUDY    45  41  87 E9        30.33S

$$

MDZ501>502-261500-
WESTERN MARYLAND

CITY           SKY/WX    TMP DP  RH WIND       PRES   REMARKS
OAKLAND*       FOG       41  41 100 SE16      30.20R VSB<1/4
CUMBERLAND*    CLOUDY    50  43  76 CALM      30.31R

$$

VAZ025>031-261500-
SHENANDOAH VALLEY

CITY           SKY/WX    TMP DP  RH WIND       PRES   REMARKS
WINCHESTER*    CLOUDY    45  41  87 E8        30.30R
FRONT ROYAL*   CLOUDY    48  43  81 E9G18     30.27S
LURAY*         PTSUNNY   54  48  82 NE7       30.25R
NEW MARKET*    PTSUNNY   51  45  77 N9        30.25R
STAUNTON*      CLOUDY    55  48  79 N5        30.25S
WAYNESBORO*    CLOUDY    56  49  77 SE8G18    30.23S

$$

WVZ021-048>050-054>055-261500-
EASTERN WEST VIRGINIA PANHANDLE

CITY           SKY/WX    TMP DP  RH WIND       PRES   REMARKS
MARTINSBURG    CLOUDY    47  40  76 E9        30.31R
PETERSBURG*    CLOUDY    56  49  78 CALM      30.24R

$$

VAZ036>039-050-261500-
CENTRAL FOOTHILLS

CITY           SKY/WX    TMP DP  RH WIND       PRES   REMARKS
CHARLOTTESVILL CLOUDY    53  45  74 NE12      30.29R
CULPEPER*      CLOUDY    50  46  84 E5        30.32S
ORANGE*        CLOUDY    50  43  76 NE6       30.31S
GORDONSVILLE*  CLOUDY    51  46  82 NE9       30.30R
WARRENTON*     CLOUDY    50  43  78 E5        30.32R

$$

VAZ055>057-261500-
NORTH AND CENTRAL PIEDMONT

CITY           SKY/WX    TMP DP  RH WIND       PRES   REMARKS
FREDERICKSBRG* CLOUDY    50  47  89 E6        30.31R
STAFFORD*      CLOUDY    48  47  95 E9        30.36R FOG

$$

NCZ024-NYZ072-PAZ021-071-VAZ022-071-261500-
OTHER REGIONAL OBSERVATIONS

CITY           SKY/WX    TMP DP  RH WIND       PRES   REMARKS
NEW YORK CITY  CLOUDY    38  33  82 E6        30.48R
PHILADELPHIA   CLOUDY    44  37  76 E13       30.41R
PITTSBURGH     CLOUDY    60  49  66 SE13G21   30.09S
ROANOKE        CLOUDY    59  51  75 SE6       30.24R
RICHMOND       PTSUNNY   61  53  75 NE8       30.27R
RALEIGH        CLOUDY    63  54  72 VRB5      30.25S

$$

ANZ530>537-261500-
MARINE OBSERVATIONS

STATION/POSITION TIME  TEMP    WIND        PRES
                       AIR SEA DIR/SP/G
                 (UTC) (F)     (DEG/KT/KT) (MB)
THOMAS PT LIGHT  1400   45 45   80/ 12/ 13   N/A
BALT KEY BRIDGE  1348   45      80/ 11/ 13 1028.1R
COVE POINT       1348   45     110/  9/ 11 1027.9R
LEWISETTA        1348   47 50   90/  9/ 12 1026.5R
SOLOMONS ISLAND  1348   46 47   80/ 10/ 12   N/A
PINEY POINT      1348          100/ 10/ 12   N/A

$$




USA.gov is the U.S. government's official web portal to all federal, state and local government web resources and services.